Tracking 19242 objects as of 16-Aug-2018
HD Live streaming from Space Station
objects crossing your sky now

FENGYUN 1C DEB

Track FENGYUN 1C DEB now!
10-day predictions


NORAD ID: 30341
Int'l Code: 1999-025ABC
Perigee: 818.3 km
Apogee: 916.3 km
Inclination: 99.2 °
Period: 102.1 minutes
Semi major axis: 7238 km
RCS: 0.0444 m2 (small)
Launch date: May 10, 1999
Source: People's Republic of China (PRC)
Launch site: Taiyaun Space Center, China (TSC)

Note: This is SATELLITE DEBRIS
aabbcc
Your satellite tracking list
Your tracking list is empty




NASA's NSSDC Master Catalog

Two Line Element Set (TLE):
1 30341U 99025ABC 18227.25697458  .00000438  00000-0  27013-3 0  9993
2 30341  99.2177 339.0613 0067711  50.0126 340.1873 14.09767230592314
Source of the keplerian elements: AFSPC